Flag for Germany Weather past 2 weeks in Magdeburg, Saxony-Anhalt, Germany

Now
42 °F

Overcast.


Feels Like: 42 °F
Forecast: 38 / 44 °F
Wind: 2 mph from Southwest

Location: Magdeburg

Current Time: Mar 1, 2015 at 9:56:56 PM

Latest Report: Mar 1, 2015 at 9:00 PM


Visibility: 38 mi

Pressure: 29.61 "Hg

Humidity: 79%

Dew point: 36 °F

Location of MagdeburgLocation

Historic Weather in Magdeburg — Graph

°F

Magdeburg temperature yesterday

Maximum temperature yesterday: 46 °F (at 3:00 PM)
Minimum temperature yesterday: 33 °F (at 7:00 AM)
Average temperature yesterday: 38 °F

Past Weeks' High & Low Weather Summary

 TemperatureHumidityPressure
High49 °F (Feb 20, 4:00 PM)98% (Feb 18, 6:00 AM)30.76 "Hg (Feb 18, 6:00 AM)
Low25 °F (Feb 17, 8:00 AM)49% (Feb 26, 5:00 PM)29.38 "Hg (Feb 21, 11:00 AM)
Average37 °F80%30.00 "Hg
* Reported Feb 14 8:00 PM — Mar 1 8:00 PM, Magdeburg, Weather by CustomWeather, © 2015

Note: Actual official high and low records may vary slightly from our data, if they occured in-between our weather recording intervals... More about our weather records

Advertising

Magdeburg weather history for previous 24 hours

 ConditionsComfort  
Time TempWeatherWind HumidityBarometerVisibility
8:00 PM
Sun, Mar 1
44 °FOvercast.8 mph76%29.62 "Hg28 mi
7:00 PM45 °FOvercast.3 mph80%29.59 "Hg25 mi
6:00 PM44 °FPassing clouds.2 mph89%29.59 "Hg19 mi
5:00 PM47 °FOvercast.5 mph79%29.59 "Hg25 mi
3:00 PM47 °FSprinkles. Overcast.6 mph77%29.58 "Hg25 mi
2:00 PM47 °FOvercast.7 mph74%29.58 "Hg31 mi
1:00 PM45 °FOvercast.7 mph77%29.60 "Hg28 mi
12:00 PM44 °FOvercast.7 mph79%29.61 "Hg19 mi
11:00 AM40 °FOvercast.7 mph87%29.61 "Hg9 mi
10:00 AM38 °FOvercast.8 mph90%29.62 "Hg6 mi
9:00 AM37 °FLight rain. Overcast.6 mph88%29.64 "Hg4 mi
8:00 AM36 °FLight rain. Overcast.6 mph87%29.66 "Hg5 mi
7:00 AM35 °FLight rain. Overcast.6 mph89%29.68 "Hg5 mi
6:00 AM36 °FOvercast.7 mph80%29.71 "Hg12 mi
5:00 AM35 °FOvercast.5 mph82%29.75 "Hg9 mi
3:00 AM34 °FOvercast.3 mph80%29.81 "Hg12 mi
2:00 AM34 °FPassing clouds.5 mph78%29.86 "Hg10 mi
1:00 AM35 °FOvercast.3 mph77%29.90 "Hg11 mi
12:00 AM35 °FPassing clouds.3 mph78%29.92 "Hg11 mi
11:00 PM
Sat, Feb 28
35 °FPassing clouds.3 mph77%29.96 "Hg11 mi
9:00 PM36 °FClear.3 mph73%30.00 "Hg25 mi
Weather by CustomWeather, © 2015

See weather overviewHow to use our weather pages